SL-6 R/B(2)

Last updated on Wed Jul 02 2025 00:02:14 GMT+0000 (Coordinated Universal Time)

1 20666U 90055D 25181.98114760 .00001155 00000+0 10210-3 0 9990 2 20666 62.7836 28.7432 0024329 194.9742 165.0639 15.02075020900366
UTC large
Height (km)
Speed (km/s)
/
Latitude / Longitude
Inclination (degrees)
Orbital Period (minutes)
Azimuth
Elevation
Range (km)
Doppler Factor

Next 0 passes for location: London (51.5072 / 0.1276)

Sorry there are no passes over London.